[[{"header":{"parameterUnit":"m.s-1","parameterCategory":1,"la1":30.2991,"la2":30.254,"lo1":-89.0895,"lo2":-89.0444,"dy":0.0017,"dx":0.0017,"nx":28,"ny":28,"refTime":"2024-08-09T21:00:00:Z","depth":0,"parameterNumber":2,"parameterNumberName":"U-component_of_WINDS"},"data":[0,0,0,0,0,0,0,0,0,0,0,0,0,0,0,0,0,0,0,0,0,0,0,0,0,0,0,0,0,0,0,0,0,0,0,0,0,0,0,0,0,0,0,0,0,0,0,0,0,0,0,0,0,0,0,0,0,0,1.2658,1.2658,0,1.2638,1.2637,1.2637,1.2551,1.2549,1.2547,1.2545,1.2526,1.2527,1.2529,0,0,0,0,0,0,0,0,0,0,0,0,0,1.2626,1.2627,1.2658,1.2658,1.2657,1.2638,1.2637,1.2637,1.2552,1.2549,1.2547,1.2544,1.2526,1.2527,1.2529,0,0,0,0,0,0,0,0,0,0,0,0,0,1.2626,1.2627,1.2658,1.2612,1.2608,1.2638,1.2637,1.2637,1.2552,1.2549,1.2546,1.2543,1.2525,1.2527,1.2529,1.2602,0,0,1.2535,1.2536,0,0,0,0,0,0,0,0,1.2626,1.2627,1.2619,1.2616,1.2611,1.2594,1.2619,1.2625,1.2553,1.2573,1.2545,1.2542,1.2551,1.2551,1.2554,1.2601,1.26,1.2536,1.2537,1.2538,1.2538,0,0,0,0,0,0,0,1.2626,1.2628,1.265,1.2619,1.2614,1.2594,1.2591,1.262,1.2579,1.2571,1.2565,1.2564,1.2548,1.2552,1.2553,1.26,1.2536,1.2537,1.2539,1.2539,1.2709,1.2712,0,0,0,0,0,0,1.2632,1.2628,1.2651,1.2649,1.2611,1.2597,1.2593,1.2602,1.2579,1.2572,1.2566,1.256,1.255,1.255,1.2552,1.2638,1.2538,1.254,1.2541,1.2706,1.271,1.2713,0,0,0,0,0,0,1.2632,1.2635,1.2651,1.2637,1.2638,1.2601,1.2612,1.2604,1.2607,1.2575,1.2568,1.2577,1.2548,1.2549,1.2591,1.2636,1.254,1.2542,1.2702,1.2707,1.2711,1.2809,0,0,0,0,0,0,1.2631,1.2636,1.2662,1.2638,1.2639,1.269,1.2614,1.2605,1.2611,1.2602,1.2583,1.2578,1.2545,1.2588,1.2593,1.2637,1.2544,1.2698,1.2704,1.271,1.2802,1.2817,1.283,0,0,0,0,0,1.2631,1.269,1.2664,1.2667,1.2671,1.2693,1.2693,1.2654,1.2614,1.2642,1.2621,1.2578,1.263,1.2593,1.2597,1.2643,1.2695,1.2702,1.2709,1.2796,1.2814,1.2829,0,0,0,0,0,0,1.272,1.2686,1.2656,1.271,1.2705,1.2678,1.2711,1.2675,1.2681,1.2673,1.2625,1.2622,1.2671,1.2661,1.2621,1.2714,1.2655,1.2664,1.2719,1.2736,1.275,1.2752,1.2546,0,0,0,0,0,1.2746,1.2765,1.2735,1.2785,1.2784,1.2748,1.2756,1.2727,1.272,1.2718,1.27,1.2696,1.2712,1.2723,1.2735,1.2799,1.2796,1.2833,1.2847,1.2858,1.2867,1.2904,1.2921,1.2737,1.2737,1.2737,0,0,1.2799,1.2783,1.2799,1.2803,1.2795,1.2819,1.2747,1.2774,1.2791,1.2722,1.2761,1.2749,1.2741,1.2795,1.2818,1.2788,1.2917,1.2868,1.2877,1.288,1.2913,1.2931,1.2946,1.2742,1.2742,1.2741,0,0,1.2909,1.2898,1.294,1.2935,1.2925,1.2901,1.2911,1.289,1.288,1.2918,1.2867,1.2888,1.2914,1.2912,1.2914,1.3026,1.2988,1.3031,1.3105,1.3141,1.3155,1.3168,1.3211,1.3227,1.3039,1.304,1.304,0,1.2978,1.301,1.2966,1.2997,1.3002,1.294,1.2984,1.298,1.2975,1.2981,1.2946,1.2981,1.2971,1.3025,1.3053,1.3056,1.3068,1.3034,1.3157,1.3169,1.318,1.3221,1.3236,1.3045,1.3045,1.3044,1.3043,0,1.3096,1.3119,1.3154,1.3152,1.316,1.3197,1.316,1.3174,1.3144,1.3125,1.3166,1.3152,1.3162,1.3172,1.3143,1.3224,1.3206,1.3165,1.3105,1.3204,1.3241,1.3256,1.3053,1.3051,1.305,1.3048,0,0,1.3262,1.3236,1.325,1.3249,1.3234,1.3252,1.3287,1.3297,1.3311,1.3309,1.334,1.3365,1.3328,1.333,1.3301,1.3332,1.3426,1.3287,1.3287,1.3316,1.3517,1.355,1.3568,1.3399,1.3402,1.3404,1.3519,0,1.3369,1.3428,1.3391,1.3456,1.3478,1.3421,1.3452,1.3447,1.343,1.3448,1.3428,1.3448,1.3396,1.3398,1.3426,1.3408,1.3466,1.3399,1.3429,1.3431,1.3436,1.3587,1.3622,1.3731,1.3533,1.3535,1.3537,0,1.3503,1.3508,1.3576,1.3559,1.3567,1.3596,1.3603,1.362,1.3614,1.36,1.3604,1.3567,1.3602,1.3542,1.3592,1.3548,1.3557,1.3551,1.3554,1.3557,1.3492,1.3598,1.3764,1.3782,1.3559,1.3557,1.3555,0,1.3621,1.3645,1.369,1.369,1.3671,1.3693,1.3687,1.3678,1.3687,1.3693,1.3699,1.3709,1.3716,1.3726,1.3693,1.3652,1.3748,1.3685,1.374,1.3741,1.3764,1.3764,1.3938,1.3766,1.3766,1.3766,1.3765,0,1.3747,1.3791,1.3743,1.3771,1.382,1.3777,1.3826,1.3813,1.3807,1.3832,1.3782,1.3807,1.3762,1.3783,1.3758,1.3804,1.3807,1.3798,1.3791,1.3804,1.3806,1.3812,1.3805,1.377,1.3769,1.3768,1.3767,0,1.3888,1.3857,1.3903,1.3881,1.3877,1.3914,1.3897,1.3922,1.3902,1.3935,1.394,1.3909,1.3931,1.3899,1.3918,1.3901,1.3967,1.3947,1.3969,1.3964,1.4022,1.4019,1.4208,1.4232,1.4043,1.4045,1.4046,0,1.3972,1.4005,1.3988,1.4001,1.3997,1.4019,1.4029,1.3988,1.4,1.3998,1.4024,1.4042,1.4055,1.4094,1.4074,1.4088,1.4071,1.4136,1.4073,1.4086,1.4076,1.4076,1.408,1.415,1.4152,1.4154,1.4156,0,1.4125,1.4109,1.4123,1.4135,1.4147,1.4154,1.4156,1.417,1.4128,1.4144,1.4167,1.4177,1.4197,1.4217,1.4226,1.422,1.4183,1.4176,1.419,1.4205,1.4218,1.4215,1.4008,1.4172,1.417,1.4169,1.4168,1.4168,1.4242,1.427,1.4263,1.4282,1.428,1.4285,1.4309,1.4292,1.431,1.4323,1.4298,1.4327,1.4323,1.4332,1.4331,1.4355,1.4327,1.4346,1.4352,1.4358,1.4369,1.4212,1.4356,1.4355,1.4355,1.4355,1.4354,0,1.4395,1.4388,1.4406,1.4413,1.4429,1.439,1.4392,1.4408,1.4435,1.4434,1.4447,1.4475,1.4494,1.4476,1.4492,1.4515,1.4498,1.4521,1.4521,1.4521,1.4391,1.4379,1.4535,1.4535,1.4535,1.4535,1.4535,1.4534,1.4477,1.4524,1.4507,1.4552,1.4545,1.4573,1.4578,1.4583,1.4582,1.4615,1.4631,1.4619,1.4612,1.4627,1.4644,1.4638,1.4648,1.4678,1.4667,1.4547,1.4529,1.4512,1.4501,1.468,1.468,1.4795,1.4796,1.4797]},{"header":{"parameterUnit":"m.s-1","parameterCategory":1,"la1":30.2991,"la2":30.254,"lo1":-89.0895,"lo2":-89.0444,"dy":0.0017,"dx":0.0017,"nx":28,"ny":28,"refTime":"2024-08-09T21:00:00:Z","depth":0,"parameterNumber":3,"parameterNumberName":"V-component_of_WINDS"},"data":[0,0,0,0,0,0,0,0,0,0,0,0,0,0,0,0,0,0,0,0,0,0,0,0,0,0,0,0,0,0,0,0,0,0,0,0,0,0,0,0,0,0,0,0,0,0,0,0,0,0,0,0,0,0,0,0,0,0,-2.1227,-2.1228,0,-2.1269,-2.127,-2.127,-2.128,-2.128,-2.128,-2.128,-2.1318,-2.1319,-2.132,0,0,0,0,0,0,0,0,0,0,0,0,0,-2.1151,-2.1152,-2.1227,-2.1228,-2.1228,-2.1269,-2.127,-2.127,-2.128,-2.128,-2.128,-2.1279,-2.1318,-2.1319,-2.1321,0,0,0,0,0,0,0,0,0,0,0,0,0,-2.1187,-2.1153,-2.1227,-2.1238,-2.124,-2.1269,-2.127,-2.1271,-2.128,-2.128,-2.128,-2.1279,-2.1317,-2.1319,-2.1321,-2.1341,0,0,-2.1327,-2.1327,0,0,0,0,0,0,0,0,-2.1185,-2.119,-2.1236,-2.1238,-2.1239,-2.1269,-2.1257,-2.1294,-2.1281,-2.1265,-2.128,-2.1279,-2.1302,-2.1305,-2.1314,-2.1342,-2.1344,-2.1327,-2.1328,-2.1329,-2.1329,0,0,0,0,0,0,0,-2.1183,-2.1188,-2.1244,-2.1237,-2.1239,-2.124,-2.1244,-2.1264,-2.1285,-2.1266,-2.1267,-2.1272,-2.1303,-2.1312,-2.1314,-2.1345,-2.1327,-2.1328,-2.133,-2.133,-2.139,-2.139,0,0,0,0,0,0,-2.1179,-2.1186,-2.1243,-2.1245,-2.1211,-2.1241,-2.1247,-2.126,-2.1285,-2.1288,-2.1272,-2.1272,-2.1309,-2.1312,-2.1316,-2.134,-2.1329,-2.1331,-2.1332,-2.1389,-2.139,-2.139,0,0,0,0,0,0,-2.1177,-2.1184,-2.1241,-2.1216,-2.1223,-2.1243,-2.1258,-2.1261,-2.127,-2.129,-2.1293,-2.1278,-2.1308,-2.1313,-2.1334,-2.1341,-2.1331,-2.1333,-2.1389,-2.139,-2.139,-2.1388,0,0,0,0,0,0,-2.1175,-2.1183,-2.1192,-2.1216,-2.1225,-2.126,-2.1258,-2.1262,-2.1274,-2.1274,-2.1296,-2.1299,-2.1308,-2.1331,-2.1336,-2.1344,-2.1335,-2.1388,-2.1389,-2.139,-2.1388,-2.1389,-2.1389,0,0,0,0,0,-2.1172,-2.1189,-2.1193,-2.12,-2.1237,-2.1261,-2.1265,-2.1277,-2.1275,-2.1283,-2.1295,-2.1298,-2.134,-2.1333,-2.1339,-2.1347,-2.1388,-2.1389,-2.139,-2.1387,-2.1388,-2.1389,0,0,0,0,0,0,-2.1164,-2.1193,-2.1197,-2.1222,-2.1239,-2.1262,-2.1273,-2.1278,-2.1295,-2.1294,-2.1307,-2.1312,-2.1331,-2.1341,-2.1334,-2.1367,-2.1364,-2.1366,-2.136,-2.1361,-2.1362,-2.1359,-2.1336,0,0,0,0,0,-2.1166,-2.1185,-2.1208,-2.1228,-2.1236,-2.1253,-2.1264,-2.1272,-2.1289,-2.1296,-2.1309,-2.1325,-2.1341,-2.1352,-2.1368,-2.1389,-2.1393,-2.1397,-2.1398,-2.1399,-2.14,-2.1411,-2.1413,-2.1394,-2.1394,-2.1394,0,0,-2.1169,-2.1186,-2.1197,-2.1227,-2.1241,-2.1258,-2.1259,-2.1278,-2.129,-2.1298,-2.1319,-2.1329,-2.1347,-2.1368,-2.1378,-2.1377,-2.1406,-2.14,-2.14,-2.1401,-2.1412,-2.1414,-2.1415,-2.1394,-2.1394,-2.1394,0,0,-2.1183,-2.1199,-2.1217,-2.1231,-2.1252,-2.1263,-2.1267,-2.129,-2.1297,-2.1319,-2.1325,-2.1339,-2.1367,-2.1379,-2.1389,-2.1407,-2.141,-2.1411,-2.1416,-2.1426,-2.1427,-2.1429,-2.1434,-2.1436,-2.1413,-2.1413,-2.1413,0,-2.1183,-2.1211,-2.1225,-2.1243,-2.1255,-2.1265,-2.1282,-2.1294,-2.1319,-2.1326,-2.1325,-2.136,-2.1373,-2.1396,-2.14,-2.1408,-2.1412,-2.1409,-2.1426,-2.1428,-2.1429,-2.1434,-2.1436,-2.1413,-2.1413,-2.1413,-2.1413,0,-2.1209,-2.1229,-2.124,-2.1266,-2.1279,-2.1297,-2.1311,-2.1323,-2.1329,-2.134,-2.136,-2.1376,-2.1395,-2.1401,-2.1407,-2.1425,-2.1423,-2.1424,-2.1421,-2.1431,-2.1436,-2.1438,-2.1413,-2.1413,-2.1413,-2.1413,0,0,-2.122,-2.1252,-2.1256,-2.1267,-2.1291,-2.1305,-2.1323,-2.1343,-2.1351,-2.1368,-2.1382,-2.1405,-2.1406,-2.1417,-2.1424,-2.1433,-2.1444,-2.1432,-2.1433,-2.1433,-2.1463,-2.1462,-2.1465,-2.1447,-2.1447,-2.1447,-2.1462,0,-2.1236,-2.1269,-2.1281,-2.1307,-2.1324,-2.1333,-2.1348,-2.1363,-2.1373,-2.1387,-2.1398,-2.1414,-2.1414,-2.1421,-2.143,-2.1441,-2.145,-2.144,-2.1458,-2.1458,-2.1453,-2.1467,-2.1466,-2.1479,-2.1464,-2.1464,-2.1464,0,-2.1259,-2.1277,-2.1305,-2.1326,-2.1334,-2.1347,-2.1366,-2.138,-2.1397,-2.1403,-2.1415,-2.1422,-2.1438,-2.1435,-2.1457,-2.1449,-2.1457,-2.1464,-2.1464,-2.1466,-2.1462,-2.1468,-2.1484,-2.1485,-2.1468,-2.1467,-2.1467,0,-2.1262,-2.1293,-2.1314,-2.1323,-2.1349,-2.1358,-2.1368,-2.1385,-2.1396,-2.1411,-2.1418,-2.1435,-2.1444,-2.1456,-2.1466,-2.1463,-2.1487,-2.1484,-2.1491,-2.1491,-2.1496,-2.1495,-2.1511,-2.1502,-2.1502,-2.1502,-2.1502,0,-2.1279,-2.1295,-2.1316,-2.1329,-2.1347,-2.136,-2.1377,-2.1388,-2.1403,-2.1416,-2.1424,-2.1436,-2.145,-2.1463,-2.1471,-2.1487,-2.1491,-2.1496,-2.1497,-2.1495,-2.1494,-2.15,-2.1499,-2.1502,-2.1502,-2.1502,-2.1502,0,-2.1285,-2.13,-2.1323,-2.1345,-2.1351,-2.1364,-2.1382,-2.1393,-2.1404,-2.1421,-2.1425,-2.1441,-2.1457,-2.1469,-2.1489,-2.1494,-2.1511,-2.1513,-2.1506,-2.1507,-2.1513,-2.1512,-2.1533,-2.1536,-2.1525,-2.1525,-2.1525,0,-2.1294,-2.1308,-2.1331,-2.1342,-2.1353,-2.1369,-2.1381,-2.1394,-2.1405,-2.1424,-2.1433,-2.145,-2.1464,-2.1489,-2.1501,-2.1517,-2.1519,-2.1525,-2.1521,-2.1517,-2.1518,-2.1517,-2.1517,-2.1525,-2.1525,-2.1525,-2.1525,0,-2.1309,-2.1315,-2.1332,-2.1351,-2.1365,-2.138,-2.1395,-2.1403,-2.1418,-2.143,-2.1447,-2.1458,-2.148,-2.1496,-2.1512,-2.1521,-2.1525,-2.1527,-2.1529,-2.1526,-2.1521,-2.1523,-2.1507,-2.1526,-2.1526,-2.1526,-2.1526,-2.1526,-2.1316,-2.1328,-2.1347,-2.1365,-2.1378,-2.1392,-2.1403,-2.1416,-2.1431,-2.145,-2.1456,-2.1474,-2.1489,-2.1511,-2.1521,-2.1533,-2.1533,-2.1537,-2.1537,-2.1538,-2.1537,-2.152,-2.1536,-2.1536,-2.1536,-2.1536,-2.1536,0,-2.133,-2.1342,-2.1359,-2.1381,-2.1394,-2.1399,-2.1416,-2.1426,-2.1442,-2.1457,-2.1471,-2.149,-2.1505,-2.1519,-2.1534,-2.1542,-2.1544,-2.1545,-2.1545,-2.1546,-2.1537,-2.1533,-2.1543,-2.1543,-2.1543,-2.1543,-2.1543,-2.1543,-2.1339,-2.1359,-2.1367,-2.1393,-2.1405,-2.1423,-2.1432,-2.1445,-2.1456,-2.1478,-2.1491,-2.15,-2.1514,-2.153,-2.1544,-2.1548,-2.1552,-2.1553,-2.1557,-2.1548,-2.1547,-2.1546,-2.1543,-2.1554,-2.1554,-2.1565,-2.1565,-2.1565]}]]